,,,PA_Meas_PMT16A,,PR_Meas_QMR101_102,,RH_Meas_QMH101,,SR_Meas_QMS101,,TA_Meas_QMH101,,GenWind,,GenWind,
date,time,status,PA,status,PR,status,RH,status,SR,status,TA,status,DirAvg,status,SpdAvg,
2011-02-15, 00:00:04,VALID,1004.93,VALID,0,INVALID,163.639,VALID,0,VALID,24.7529,VALID,13,VALID,0.308203,
2011-02-15, 00:01:04,VALID,1004.94,VALID,0,INVALID,163.67,VALID,0,VALID,24.714,VALID,13,VALID,0.166406,
2011-02-15, 00:02:04,VALID,1004.89,VALID,0,INVALID,163.662,VALID,0,VALID,24.714,VALID,13,VALID,0.157813,
2011-02-15, 00:03:04,VALID,1004.87,VALID,0,INVALID,163.632,VALID,0,VALID,24.714,VALID,13,VALID,0.217187,
2011-02-15, 00:04:04,VALID,1004.86,VALID,0,INVALID,163.655,VALID,0,VALID,24.7121,VALID,13,VALID,0.0742188,
2011-02-15, 00:05:04,VALID,1004.83,VALID,0,INVALID,163.685,VALID,0,VALID,24.7335,VALID,13,VALID,0.178125,
2011-02-15, 00:06:04,VALID,1004.84,VALID,0,INVALID,163.662,VALID,0,VALID,24.714,VALID,13,VALID,0.0761719,
2011-02-15, 00:07:04,VALID,1004.82,VALID,0,INVALID,163.639,VALID,0,VALID,24.714,VALID,13,VALID,0.0105469,
2011-02-15, 00:08:04,VALID,1004.88,VALID,0,INVALID,163.67,VALID,0,VALID,24.714,VALID,13,VALID,0,
2011-02-15, 00:09:04,VALID,1004.86,VALID,0,INVALID,163.67,VALID,0,VALID,24.6964,VALID,13,VALID,0,
2011-02-15, 00:10:04,VALID,1004.87,VALID,0,INVALID,163.655,VALID,0,VALID,24.6945,VALID,13,VALID,0,
2011-02-15, 00:11:04,VALID,1004.9,VALID,0,INVALID,163.647,VALID,0,VALID,24.6945,VALID,13,VALID,0,
2011-02-15, 00:12:04,VALID,1004.92,VALID,0,INVALID,163.685,VALID,0,VALID,24.6945,VALID,13,VALID,0,
2011-02-15, 00:13:04,VALID,1004.9,VALID,0,INVALID,163.655,VALID,0,VALID,24.675,VALID,13,VALID,0,
2011-02-15, 00:14:04,VALID,1004.92,VALID,0,INVALID,163.685,VALID,0,VALID,24.675,VALID,13,VALID,0,
2011-02-15, 00:15:04,VALID,1004.91,VALID,0,INVALID,163.647,VALID,0,VALID,24.675,VALID,13,VALID,0,
2011-02-15, 00:16:04,VALID,1004.9,VALID,0,INVALID,163.662,VALID,0,VALID,24.6556,VALID,13,VALID,0,
2011-02-15, 00:17:04,VALID,1004.88,VALID,0,INVALID,163.655,VALID,0,VALID,24.6769,VALID,13,VALID,0,
2011-02-15, 00:18:04,VALID,1004.87,VALID,0,INVALID,163.67,VALID,0,VALID,24.6556,VALID,13,VALID,0,
2011-02-15, 00:19:04,VALID,1004.83,VALID,0,INVALID,163.678,VALID,0,VALID,24.675,VALID,13,VALID,0,
2011-02-15, 00:20:04,VALID,1004.83,VALID,0,INVALID,163.662,VALID,0,VALID,24.6556,VALID,13,VALID,0.567187,
2011-02-15, 00:21:04,VALID,1004.82,VALID,0,INVALID,163.67,VALID,0,VALID,24.6556,VALID,13,VALID,0.388281,
2011-02-15, 00:22:04,VALID,1004.81,VALID,0,INVALID,163.67,VALID,0,VALID,24.6556,VALID,13,VALID,0.440234,
2011-02-15, 00:23:04,VALID,1004.78,VALID,0,INVALID,163.647,VALID,0,VALID,24.6556,VALID,13,VALID,0.514453,
2011-02-15, 00:24:04,VALID,1004.78,VALID,0,INVALID,163.678,VALID,0,VALID,24.6556,VALID,13,VALID,0.300391,
2011-02-15, 00:25:04,VALID,1004.79,VALID,0,INVALID,163.67,VALID,0,VALID,24.6574,VALID,13,VALID,0.262109,
2011-02-15, 00:26:04,VALID,1004.74,VALID,0,INVALID,163.662,VALID,0,VALID,24.638,VALID,13,VALID,0.2125,
2011-02-15, 00:27:04,VALID,1004.74,VALID,0,INVALID,163.678,VALID,0,VALID,24.6166,VALID,13,VALID,0,
2011-02-15, 00:28:04,VALID,1004.71,VALID,0,INVALID,163.67,VALID,0,VALID,24.638,VALID,13,VALID,0,
2011-02-15, 00:29:04,VALID,1004.68,VALID,0,INVALID,163.639,VALID,0,VALID,24.6398,VALID,13,VALID,0,
2011-02-15, 00:30:04,VALID,1004.66,VALID,0,INVALID,163.678,VALID,0,VALID,24.5972,VALID,13,VALID,0,
2011-02-15, 00:31:04,VALID,1004.65,VALID,0,INVALID,163.662,VALID,0,VALID,24.5796,VALID,13,VALID,0.199219,
2011-02-15, 00:32:04,VALID,1004.62,VALID,0,INVALID,163.662,VALID,0,VALID,24.5796,VALID,13,VALID,0.140234,
2011-02-15, 00:33:04,VALID,1004.57,VALID,0,INVALID,163.67,VALID,0,VALID,24.5777,VALID,13,VALID,0.608594,
2011-02-15, 00:34:04,VALID,1004.59,VALID,0,INVALID,163.678,VALID,0,VALID,24.5601,VALID,13,VALID,0.383203,
2011-02-15, 00:35:04,VALID,1004.56,VALID,0,INVALID,163.685,VALID,0,VALID,24.5601,VALID,13,VALID,0.298047,
2011-02-15, 00:36:04,VALID,1004.56,VALID,0,INVALID,163.67,VALID,0,VALID,24.5193,VALID,13,VALID,0.328906,
2011-02-15, 00:37:04,VALID,1004.57,VALID,0,INVALID,163.685,VALID,0,VALID,24.5406,VALID,13,VALID,0.355469,
2011-02-15, 00:38:04,VALID,1004.55,VALID,0,INVALID,163.655,VALID,0,VALID,24.5193,VALID,13,VALID,0.308984,
2011-02-15, 00:39:04,VALID,1004.54,VALID,0,INVALID,163.617,VALID,0,VALID,24.5212,VALID,13,VALID,0.362109,
2011-02-15, 00:40:04,VALID,1004.53,VALID,0,INVALID,163.67,VALID,0,VALID,24.4785,VALID,13,VALID,0.377344,
2011-02-15, 00:41:04,VALID,1004.55,VALID,0,INVALID,163.685,VALID,0,VALID,24.4998,VALID,13,VALID,0.590625,
2011-02-15, 00:42:04,VALID,1004.55,VALID,0,INVALID,163.685,VALID,0,VALID,24.4804,VALID,13,VALID,0.523828,
2011-02-15, 00:43:04,VALID,1004.53,VALID,0,INVALID,163.67,VALID,0,VALID,24.4822,VALID,11,VALID,0.489844,
2011-02-15, 00:44:04,VALID,1004.54,VALID,0,INVALID,163.67,VALID,0,VALID,24.4822,VALID,11,VALID,0.298828,
2011-02-15, 00:45:04,VALID,1004.48,VALID,0,INVALID,163.662,VALID,0,VALID,24.4414,VALID,11,VALID,0.192969,
2011-02-15, 00:46:04,VALID,1004.46,VALID,0,INVALID,163.678,VALID,0,VALID,24.4414,VALID,11,VALID,0.221484,
2011-02-15, 00:47:04,VALID,1004.46,VALID,0,INVALID,163.678,VALID,0,VALID,24.422,VALID,11,VALID,0.233984,
2011-02-15, 00:48:04,VALID,1004.41,VALID,0,INVALID,163.678,VALID,0,VALID,24.4628,VALID,11,VALID,0,
2011-02-15, 00:49:04,VALID,1004.39,VALID,0,INVALID,163.701,VALID,0,VALID,24.422,VALID,11,VALID,0,
2011-02-15, 00:50:04,VALID,1004.36,VALID,0,INVALID,163.639,VALID,0,VALID,24.4414,VALID,11,VALID,0.00078125,
2011-02-15, 00:51:04,VALID,1004.38,VALID,0,INVALID,163.685,VALID,0,VALID,24.4628,VALID,11,VALID,0.144922,
2011-02-15, 00:52:04,VALID,1004.39,VALID,0,INVALID,163.693,VALID,0,VALID,24.4414,VALID,11,VALID,0.0878906,
2011-02-15, 00:53:04,VALID,1004.36,VALID,0,INVALID,163.639,VALID,0,VALID,24.4238,VALID,11,VALID,0,
2011-02-15, 00:54:04,VALID,1004.34,VALID,0,INVALID,163.662,VALID,0,VALID,24.4025,VALID,11,VALID,0,
2011-02-15, 00:55:04,VALID,1004.33,VALID,0,INVALID,163.67,VALID,0,VALID,24.4238,VALID,11,VALID,0,
2011-02-15, 00:56:04,VALID,1004.32,VALID,0,INVALID,163.701,VALID,0,VALID,24.383,VALID,11,VALID,0.233984,
2011-02-15, 00:57:04,VALID,1004.33,VALID,0,INVALID,163.678,VALID,0,VALID,24.3849,VALID,11,VALID,0.395312,
2011-02-15, 00:58:04,VALID,1004.34,VALID,0,INVALID,163.639,VALID,0,VALID,24.3636,VALID,11,VALID,0.344531,
2011-02-15, 00:59:04,VALID,1004.3,VALID,0,INVALID,163.701,VALID,0,VALID,24.4043,VALID,11,VALID,0.444531,
2011-02-15, 01:00:04,VALID,1004.3,VALID,0,INVALID,163.693,VALID,0,VALID,24.383,VALID,11,VALID,0.210156,
2011-02-15, 01:01:04,VALID,1004.31,VALID,0,INVALID,163.716,VALID,0,VALID,24.4043,VALID,11,VALID,0.260938,
2011-02-15, 01:02:04,VALID,1004.29,VALID,0,INVALID,163.693,VALID,0,VALID,24.3849,VALID,11,VALID,0,
2011-02-15, 01:03:04,VALID,1004.24,VALID,0,INVALID,163.678,VALID,0,VALID,24.3636,VALID,11,VALID,0.23125,
2011-02-15, 01:04:04,VALID,1004.25,VALID,0,INVALID,163.693,VALID,0,VALID,24.3849,VALID,11,VALID,0.419531,
2011-02-15, 01:05:04,VALID,1004.24,VALID,0,INVALID,163.701,VALID,0,VALID,24.3654,VALID,11,VALID,0.340234,
2011-02-15, 01:06:04,VALID,1004.23,VALID,0,INVALID,163.693,VALID,0,VALID,24.3441,VALID,11,VALID,0.327734,
2011-02-15, 01:07:04,VALID,1004.23,VALID,0,INVALID,163.708,VALID,0,VALID,24.3441,VALID,11,VALID,0.328906,
2011-02-15, 01:08:04,VALID,1004.24,VALID,0,INVALID,163.67,VALID,0,VALID,24.3052,VALID,11,VALID,0.119922,
2011-02-15, 01:09:04,VALID,1004.21,VALID,0,INVALID,163.693,VALID,0,VALID,24.3052,VALID,11,VALID,0.158984,
2011-02-15, 01:10:04,VALID,1004.22,VALID,0,INVALID,163.678,VALID,0,VALID,24.307,VALID,11,VALID,0.0199219,
2011-02-15, 01:11:04,VALID,1004.19,VALID,0,INVALID,163.67,VALID,0,VALID,24.3283,VALID,11,VALID,0,
2011-02-15, 01:12:04,VALID,1004.17,VALID,0,INVALID,163.685,VALID,0,VALID,24.307,VALID,11,VALID,0.0410156,
2011-02-15, 01:13:04,VALID,1004.17,VALID,0,INVALID,163.701,VALID,0,VALID,24.2875,VALID,11,VALID,0,
2011-02-15, 01:14:04,VALID,1004.13,VALID,0,INVALID,163.685,VALID,0,VALID,24.2875,VALID,11,VALID,0.00351562,
2011-02-15, 01:15:04,VALID,1004.14,VALID,0,INVALID,163.693,VALID,0,VALID,24.2681,VALID,11,VALID,0.304688,
2011-02-15, 01:16:04,VALID,1004.11,VALID,0,INVALID,163.678,VALID,0,VALID,24.2681,VALID,11,VALID,0.0664063,
2011-02-15, 01:17:04,VALID,1004.08,VALID,0,INVALID,163.701,VALID,0,VALID,24.2273,VALID,11,VALID,0.484375,
2011-02-15, 01:18:04,VALID,1004.07,VALID,0,INVALID,163.678,VALID,0,VALID,24.2273,VALID,11,VALID,0.421875,
2011-02-15, 01:19:04,VALID,1004.06,VALID,0,INVALID,163.693,VALID,0,VALID,24.2273,VALID,11,VALID,0.465234,
2011-02-15, 01:20:04,VALID,1004.05,VALID,0,INVALID,163.678,VALID,0,VALID,24.2273,VALID,11,VALID,0.317578,
2011-02-15, 01:21:04,VALID,1004.05,VALID,0,INVALID,163.678,VALID,0,VALID,24.2273,VALID,11,VALID,0.278906,
2011-02-15, 01:22:04,VALID,1004.01,VALID,0,INVALID,163.693,VALID,0,VALID,24.2486,VALID,11,VALID,0.230859,
2011-02-15, 01:23:04,VALID,1004,VALID,0,INVALID,163.67,VALID,0,VALID,24.2291,VALID,11,VALID,0.237109,
2011-02-15, 01:24:04,VALID,1004.02,VALID,0,INVALID,163.67,VALID,0,VALID,24.2486,VALID,11,VALID,0.147656,
2011-02-15, 01:25:04,VALID,1003.99,VALID,0,INVALID,163.678,VALID,0,VALID,24.2486,VALID,11,VALID,0.201953,
2011-02-15, 01:26:04,VALID,1003.97,VALID,0,INVALID,163.693,VALID,0,VALID,24.2273,VALID,11,VALID,0.192969,
2011-02-15, 01:27:04,VALID,1003.96,VALID,0,INVALID,163.693,VALID,0,VALID,24.2273,VALID,11,VALID,0,
2011-02-15, 01:28:04,VALID,1003.98,VALID,0,INVALID,163.701,VALID,0,VALID,24.2273,VALID,11,VALID,0,
2011-02-15, 01:29:04,VALID,1003.94,VALID,0,INVALID,163.693,VALID,0,VALID,24.2078,VALID,11,VALID,0.00429688,
2011-02-15, 01:30:04,VALID,1003.93,VALID,0,INVALID,163.693,VALID,0,VALID,24.2078,VALID,11,VALID,0,
2011-02-15, 01:31:04,VALID,1003.91,VALID,0,INVALID,163.701,VALID,0,VALID,24.2078,VALID,11,VALID,0,
2011-02-15, 01:32:04,VALID,1003.92,VALID,0,INVALID,163.701,VALID,0,VALID,24.2078,VALID,11,VALID,0.310156,
2011-02-15, 01:33:04,VALID,1003.89,VALID,0,INVALID,163.708,VALID,0,VALID,24.2078,VALID,12,VALID,0.538281,
2011-02-15, 01:34:04,VALID,1003.91,VALID,0,INVALID,163.701,VALID,0,VALID,24.1884,VALID,12,VALID,0.435937,
2011-02-15, 01:35:04,VALID,1003.92,VALID,0,INVALID,163.701,VALID,0,VALID,24.1689,VALID,12,VALID,0.412891,
2011-02-15, 01:36:04,VALID,1003.89,VALID,0,INVALID,163.701,VALID,0,VALID,24.1476,VALID,12,VALID,0.4875,
2011-02-15, 01:37:04,VALID,1003.92,VALID,0,INVALID,163.685,VALID,0,VALID,24.1494,VALID,12,VALID,0.592188,
2011-02-15, 01:38:04,VALID,1003.89,VALID,0,INVALID,163.693,VALID,0,VALID,24.1689,VALID,12,VALID,0.483594,
2011-02-15, 01:39:04,VALID,1003.88,VALID,0,INVALID,163.678,VALID,0,VALID,24.13,VALID,12,VALID,0.503906,
2011-02-15, 01:40:04,VALID,1003.86,VALID,0,INVALID,163.701,VALID,0,VALID,24.1087,VALID,12,VALID,0.369141,
2011-02-15, 01:41:04,VALID,1003.88,VALID,0,INVALID,163.701,VALID,0,VALID,24.13,VALID,12,VALID,0.459766,
2011-02-15, 01:42:04,VALID,1003.86,VALID,0,INVALID,163.693,VALID,0,VALID,24.1105,VALID,12,VALID,0.446484,
2011-02-15, 01:43:04,VALID,1003.85,VALID,0,INVALID,163.693,VALID,0,VALID,24.1105,VALID,12,VALID,0.475391,
2011-02-15, 01:44:04,VALID,1003.83,VALID,0,INVALID,163.685,VALID,0,VALID,24.0697,VALID,12,VALID,0.298438,
2011-02-15, 01:45:04,VALID,1003.82,VALID,0,INVALID,163.701,VALID,0,VALID,24.091,VALID,12,VALID,0.472266,
2011-02-15, 01:46:04,VALID,1003.8,VALID,0,INVALID,163.67,VALID,0,VALID,24.1105,VALID,12,VALID,0.627734,
2011-02-15, 01:47:04,VALID,1003.79,VALID,0,INVALID,163.693,VALID,0.100563,VALID,24.13,VALID,12,VALID,0.50625,
2011-02-15, 01:48:04,VALID,1003.78,VALID,0,INVALID,163.701,VALID,0,VALID,24.1087,VALID,12,VALID,0.645312,
2011-02-15, 01:49:04,VALID,1003.77,VALID,0,INVALID,163.693,VALID,0,VALID,24.1087,VALID,12,VALID,0.592578,
2011-02-15, 01:50:04,VALID,1003.77,VALID,0,INVALID,163.708,VALID,0,VALID,24.1494,VALID,12,VALID,0.591406,
2011-02-15, 01:51:04,VALID,1003.77,VALID,0,INVALID,163.708,VALID,0.100563,VALID,24.1494,VALID,12,VALID,0.498047,
2011-02-15, 01:52:04,VALID,1003.79,VALID,0,INVALID,163.708,VALID,0.100563,VALID,24.1476,VALID,12,VALID,0.58125,
2011-02-15, 01:53:04,VALID,1003.75,VALID,0,INVALID,163.693,VALID,0,VALID,24.1689,VALID,12,VALID,0.521094,
2011-02-15, 01:54:04,VALID,1003.74,VALID,0,INVALID,163.693,VALID,0,VALID,24.1494,VALID,12,VALID,0.609766,
2011-02-15, 01:55:04,VALID,1003.72,VALID,0,INVALID,163.678,VALID,0,VALID,24.1494,VALID,12,VALID,0.544922,
2011-02-15, 01:56:04,VALID,1003.72,VALID,0,INVALID,163.708,VALID,0,VALID,24.1689,VALID,11,VALID,0.584375,
2011-02-15, 01:57:04,VALID,1003.72,VALID,0,INVALID,163.716,VALID,0,VALID,24.1494,VALID,9,VALID,0.501953,
2011-02-15, 01:58:04,VALID,1003.69,VALID,0,INVALID,163.693,VALID,0,VALID,24.1494,VALID,9,VALID,0.651172,
2011-02-15, 01:59:04,VALID,1003.67,VALID,0,INVALID,163.693,VALID,0,VALID,24.1494,VALID,9,VALID,0.508984,
2011-02-15, 02:00:04,VALID,1003.66,VALID,0,INVALID,163.693,VALID,0,VALID,24.13,VALID,8,VALID,0.508594,
2011-02-15, 02:01:04,VALID,1003.61,VALID,0,INVALID,163.708,VALID,0,VALID,24.1105,VALID,8,VALID,0.310937,
2011-02-15, 02:02:04,VALID,1003.66,VALID,0,INVALID,163.716,VALID,0,VALID,24.1105,VALID,8,VALID,0.376563,
2011-02-15, 02:03:04,VALID,1003.63,VALID,0,INVALID,163.723,VALID,0,VALID,24.1123,VALID,8,VALID,0.338672,
2011-02-15, 02:04:04,VALID,1003.62,VALID,0,INVALID,163.685,VALID,0,VALID,24.091,VALID,8,VALID,0.41875,
2011-02-15, 02:05:04,VALID,1003.63,VALID,0,INVALID,163.693,VALID,0,VALID,24.091,VALID,8,VALID,0.558594,
2011-02-15, 02:06:04,VALID,1003.62,VALID,0,INVALID,163.701,VALID,0,VALID,24.091,VALID,8,VALID,0.582812,
2011-02-15, 02:07:04,VALID,1003.6,VALID,0,INVALID,163.708,VALID,0,VALID,24.0503,VALID,8,VALID,0.642969,
2011-02-15, 02:08:04,VALID,1003.62,VALID,0,INVALID,163.716,VALID,0,VALID,24.1123,VALID,8,VALID,0.487109,
2011-02-15, 02:09:04,VALID,1003.65,VALID,0,INVALID,163.708,VALID,0,VALID,24.1105,VALID,2,VALID,0.565625,
2011-02-15, 02:10:04,VALID,1003.64,VALID,0,INVALID,163.685,VALID,0,VALID,24.1318,VALID,350,VALID,0.505859,
2011-02-15, 02:11:04,VALID,1003.61,VALID,0,INVALID,163.701,VALID,0,VALID,24.1105,VALID,349,VALID,0.532422,
2011-02-15, 02:12:04,VALID,1003.66,VALID,0,INVALID,163.716,VALID,0,VALID,24.13,VALID,349,VALID,0.453125,
2011-02-15, 02:13:04,VALID,1003.63,VALID,0,INVALID,163.701,VALID,0,VALID,24.13,VALID,349,VALID,0.407031,
2011-02-15, 02:14:04,VALID,1003.62,VALID,0,INVALID,163.701,VALID,0,VALID,24.1105,VALID,349,VALID,0.362891,
2011-02-15, 02:15:04,VALID,1003.61,VALID,0,INVALID,163.701,VALID,0,VALID,24.1105,VALID,349,VALID,0.492578,
2011-02-15, 02:16:04,VALID,1003.61,VALID,0,INVALID,163.685,VALID,0,VALID,24.1123,VALID,349,VALID,0.448438,
2011-02-15, 02:17:04,VALID,1003.58,VALID,0,INVALID,163.701,VALID,0,VALID,24.0716,VALID,349,VALID,0.541016,
2011-02-15, 02:18:04,VALID,1003.6,VALID,0,INVALID,163.685,VALID,0.100563,VALID,24.0521,VALID,349,VALID,0.477344,
2011-02-15, 02:19:04,VALID,1003.58,VALID,0,INVALID,163.723,VALID,0,VALID,24.0326,VALID,358,VALID,0.691797,
2011-02-15, 02:20:04,VALID,1003.59,VALID,0,INVALID,163.701,VALID,0,VALID,24.0114,VALID,346,VALID,0.600781,
2011-02-15, 02:21:04,VALID,1003.59,VALID,0,INVALID,163.685,VALID,0,VALID,24.0308,VALID,346,VALID,0.318359,
2011-02-15, 02:22:04,VALID,1003.62,VALID,0,INVALID,163.723,VALID,0,VALID,24.091,VALID,347,VALID,0.221094,
2011-02-15, 02:23:04,VALID,1003.61,VALID,0,INVALID,163.708,VALID,0.100563,VALID,24.13,VALID,346,VALID,0.202734,
2011-02-15, 02:24:04,VALID,1003.63,VALID,0,INVALID,163.716,VALID,0,VALID,24.1707,VALID,347,VALID,0.466406,
2011-02-15, 02:25:04,VALID,1003.64,VALID,0,INVALID,163.701,VALID,0,VALID,24.1689,VALID,347,VALID,0.735937,
2011-02-15, 02:26:04,VALID,1003.63,VALID,0,INVALID,163.716,VALID,0,VALID,24.2273,VALID,360,VALID,0.577344,
2011-02-15, 02:27:04,VALID,1003.63,VALID,0,INVALID,163.678,VALID,0,VALID,24.2273,VALID,359,VALID,0.510938,
2011-02-15, 02:28:04,VALID,1003.62,VALID,0,INVALID,163.701,VALID,0,VALID,24.206,VALID,360,VALID,0.567187,
2011-02-15, 02:29:04,VALID,1003.61,VALID,0,INVALID,163.701,VALID,0.100563,VALID,24.2273,VALID,360,VALID,0.577344,
2011-02-15, 02:30:04,VALID,1003.6,VALID,0,INVALID,163.701,VALID,0.100563,VALID,24.2273,VALID,2,VALID,0.623438,
2011-02-15, 02:31:04,VALID,1003.57,VALID,0,INVALID,163.67,VALID,0,VALID,24.2291,VALID,9,VALID,0.614453,
2011-02-15, 02:32:04,VALID,1003.56,VALID,0,INVALID,163.716,VALID,0,VALID,24.2681,VALID,8,VALID,0.452344,
2011-02-15, 02:33:04,VALID,1003.53,VALID,0,INVALID,163.67,VALID,0,VALID,24.2875,VALID,8,VALID,0.456641,
2011-02-15, 02:34:04,VALID,1003.52,VALID,0,INVALID,163.701,VALID,0.100563,VALID,24.2662,VALID,8,VALID,0.658203,
2011-02-15, 02:35:04,VALID,1003.52,VALID,0,INVALID,163.67,VALID,0,VALID,24.2644,VALID,13,VALID,0.696484,
2011-02-15, 02:36:04,VALID,1003.51,VALID,0,INVALID,163.708,VALID,0,VALID,24.2662,VALID,13,VALID,0.551172,
2011-02-15, 02:37:04,VALID,1003.51,VALID,0,INVALID,163.693,VALID,0,VALID,24.2857,VALID,13,VALID,0.208594,
2011-02-15, 02:38:04,VALID,1003.51,VALID,0,INVALID,163.693,VALID,0.100563,VALID,24.2839,VALID,13,VALID,0.261328,
2011-02-15, 02:39:04,VALID,1003.51,VALID,0,INVALID,163.701,VALID,0.100563,VALID,24.3052,VALID,13,VALID,0.359375,
2011-02-15, 02:40:04,VALID,1003.5,VALID,0,INVALID,163.685,VALID,0,VALID,24.2857,VALID,13,VALID,0.245703,
2011-02-15, 02:41:04,VALID,1003.49,VALID,0,INVALID,163.723,VALID,0,VALID,24.2857,VALID,13,VALID,0.388672,
2011-02-15, 02:42:04,VALID,1003.46,VALID,0,INVALID,163.67,VALID,0.100563,VALID,24.2857,VALID,9,VALID,0.574609,
2011-02-15, 02:43:04,VALID,1003.47,VALID,0,INVALID,163.701,VALID,0.100563,VALID,24.307,VALID,9,VALID,0.490625,
2011-02-15, 02:44:04,VALID,1003.44,VALID,0,INVALID,163.67,VALID,0.100563,VALID,24.2857,VALID,9,VALID,0.398828,
2011-02-15, 02:45:04,VALID,1003.42,VALID,0,INVALID,163.67,VALID,0,VALID,24.2857,VALID,9,VALID,0.599219,
2011-02-15, 02:46:04,VALID,1003.42,VALID,0,INVALID,163.701,VALID,0.100563,VALID,24.3265,VALID,9,VALID,0.6375,
2011-02-15, 02:47:04,VALID,1003.41,VALID,0,INVALID,163.708,VALID,0,VALID,24.3052,VALID,9,VALID,0.354688,
2011-02-15, 02:48:04,VALID,1003.41,VALID,0,INVALID,163.662,VALID,0.100563,VALID,24.3052,VALID,9,VALID,0.235938,
2011-02-15, 02:49:04,VALID,1003.4,VALID,0,INVALID,163.662,VALID,0,VALID,24.3246,VALID,9,VALID,0.00585938,
2011-02-15, 02:50:04,VALID,1003.43,VALID,0,INVALID,163.701,VALID,0.100563,VALID,24.3246,VALID,9,VALID,0.0480469,
2011-02-15, 02:51:04,VALID,1003.44,VALID,0,INVALID,163.685,VALID,0,VALID,24.3441,VALID,9,VALID,0.545313,
2011-02-15, 02:52:04,VALID,1003.45,VALID,0,INVALID,163.693,VALID,0.100563,VALID,24.3654,VALID,19,VALID,0.600391,
2011-02-15, 02:53:04,VALID,1003.44,VALID,0,INVALID,163.67,VALID,0,VALID,24.3441,VALID,19,VALID,0.432813,
2011-02-15, 02:54:04,VALID,1003.42,VALID,0,INVALID,163.708,VALID,0.100563,VALID,24.3636,VALID,19,VALID,0.144531,
2011-02-15, 02:55:04,VALID,1003.42,VALID,0,INVALID,163.678,VALID,0.100563,VALID,24.3636,VALID,19,VALID,0.193359,
2011-02-15, 02:56:04,VALID,1003.41,VALID,0,INVALID,163.662,VALID,0,VALID,24.3849,VALID,19,VALID,0.559375,
2011-02-15, 02:57:04,VALID,1003.4,VALID,0,INVALID,163.67,VALID,0,VALID,24.3422,VALID,21,VALID,0.859766,
2011-02-15, 02:58:04,VALID,1003.41,VALID,0,INVALID,163.67,VALID,0.100563,VALID,24.3422,VALID,22,VALID,0.603906,
2011-02-15, 02:59:04,VALID,1003.43,VALID,0,INVALID,163.693,VALID,0.100563,VALID,24.3636,VALID,22,VALID,0.557422,
2011-02-15, 03:00:04,VALID,1003.4,VALID,0,INVALID,163.685,VALID,0.100563,VALID,24.3636,VALID,22,VALID,0.530469,
2011-02-15, 03:01:04,VALID,1003.43,VALID,0,INVALID,163.693,VALID,0,VALID,24.3636,VALID,22,VALID,0.634766,
2011-02-15, 03:02:04,VALID,1003.45,VALID,0,INVALID,163.701,VALID,0,VALID,24.3441,VALID,22,VALID,0.604297,
2011-02-15, 03:03:04,VALID,1003.45,VALID,0,INVALID,163.716,VALID,0.100563,VALID,24.3654,VALID,22,VALID,0.759766,
2011-02-15, 03:04:04,VALID,1003.51,VALID,0,INVALID,163.678,VALID,0,VALID,24.3246,VALID,20,VALID,0.353906,
2011-02-15, 03:05:04,VALID,1003.49,VALID,0,INVALID,163.701,VALID,0,VALID,24.3636,VALID,20,VALID,0.262109,
2011-02-15, 03:06:04,VALID,1003.49,VALID,0,INVALID,163.716,VALID,0,VALID,24.3636,VALID,20,VALID,0.128516,
2011-02-15, 03:07:04,VALID,1003.49,VALID,0,INVALID,163.67,VALID,0.100563,VALID,24.3636,VALID,20,VALID,0.178125,
2011-02-15, 03:08:04,VALID,1003.49,VALID,0,INVALID,163.685,VALID,0,VALID,24.3849,VALID,20,VALID,0.401563,
2011-02-15, 03:09:04,VALID,1003.51,VALID,0,INVALID,163.678,VALID,0,VALID,24.3441,VALID,20,VALID,0.365234,
2011-02-15, 03:10:04,VALID,1003.51,VALID,0,INVALID,163.685,VALID,0.100563,VALID,24.3441,VALID,20,VALID,0.498828,
2011-02-15, 03:11:04,VALID,1003.52,VALID,0,INVALID,163.685,VALID,0.100563,VALID,24.3441,VALID,20,VALID,0.596484,
2011-02-15, 03:12:04,VALID,1003.53,VALID,0,INVALID,163.662,VALID,0.100563,VALID,24.3636,VALID,20,VALID,0.478516,
2011-02-15, 03:13:04,VALID,1003.55,VALID,0,INVALID,163.678,VALID,0,VALID,24.3441,VALID,20,VALID,0.616797,
2011-02-15, 03:14:04,VALID,1003.54,VALID,0,INVALID,163.685,VALID,0,VALID,24.3441,VALID,12,VALID,0.707812,
2011-02-15, 03:15:04,VALID,1003.56,VALID,0,INVALID,163.678,VALID,0.100563,VALID,24.3654,VALID,10,VALID,0.519531,
2011-02-15, 03:16:04,VALID,1003.59,VALID,0,INVALID,163.678,VALID,0.100563,VALID,24.3246,VALID,8,VALID,0.666016,
2011-02-15, 03:17:04,VALID,1003.61,VALID,0,INVALID,163.678,VALID,0,VALID,24.3246,VALID,8,VALID,0.601563,
2011-02-15, 03:18:04,VALID,1003.63,VALID,0,INVALID,163.716,VALID,0,VALID,24.3246,VALID,7,VALID,0.726563,
2011-02-15, 03:19:04,VALID,1003.65,VALID,0,INVALID,163.693,VALID,0,VALID,24.3246,VALID,1,VALID,0.64375,
2011-02-15, 03:20:04,VALID,1003.66,VALID,0,INVALID,163.693,VALID,0.100563,VALID,24.3441,VALID,356,VALID,0.515234,
2011-02-15, 03:21:04,VALID,1003.66,VALID,0,INVALID,163.693,VALID,0,VALID,24.3441,VALID,353,VALID,0.567578,
2011-02-15, 03:22:04,VALID,1003.66,VALID,0,INVALID,163.685,VALID,0,VALID,24.3052,VALID,353,VALID,0.414844,
2011-02-15, 03:23:04,VALID,1003.65,VALID,0,INVALID,163.678,VALID,0.100563,VALID,24.3052,VALID,353,VALID,0.419531,
2011-02-15, 03:24:04,VALID,1003.6,VALID,0,INVALID,163.685,VALID,0,VALID,24.3052,VALID,352,VALID,0.551172,
2011-02-15, 03:25:04,VALID,1003.63,VALID,0,INVALID,163.693,VALID,0,VALID,24.3052,VALID,352,VALID,0.478906,
2011-02-15, 03:26:04,VALID,1003.57,VALID,0,INVALID,163.693,VALID,0,VALID,24.307,VALID,352,VALID,0.4375,
2011-02-15, 03:27:04,VALID,1003.59,VALID,0,INVALID,163.693,VALID,0,VALID,24.2857,VALID,352,VALID,0.475781,
2011-02-15, 03:28:04,VALID,1003.54,VALID,0,INVALID,163.693,VALID,0,VALID,24.2857,VALID,352,VALID,0.503125,
2011-02-15, 03:29:04,VALID,1003.52,VALID,0,INVALID,163.693,VALID,0,VALID,24.2857,VALID,352,VALID,0.498828,
2011-02-15, 03:30:04,VALID,1003.52,VALID,0,INVALID,163.693,VALID,0,VALID,24.2662,VALID,352,VALID,0.511328,
2011-02-15, 03:31:04,VALID,1003.5,VALID,0,INVALID,163.685,VALID,0,VALID,24.2662,VALID,352,VALID,0.5125,
2011-02-15, 03:32:04,VALID,1003.47,VALID,0,INVALID,163.701,VALID,0,VALID,24.2662,VALID,9,VALID,0.607422,
2011-02-15, 03:33:04,VALID,1003.46,VALID,0,INVALID,163.685,VALID,0,VALID,24.2662,VALID,9,VALID,0.743359,
2011-02-15, 03:34:04,VALID,1003.4,VALID,0,INVALID,163.701,VALID,0,VALID,24.2662,VALID,5,VALID,0.680469,
2011-02-15, 03:35:04,VALID,1003.35,VALID,0,INVALID,163.685,VALID,0,VALID,24.2875,VALID,5,VALID,0.466406,
2011-02-15, 03:36:04,VALID,1003.31,VALID,0,INVALID,163.693,VALID,0,VALID,24.2662,VALID,5,VALID,0.601563,
2011-02-15, 03:37:04,VALID,1003.25,VALID,0,INVALID,163.67,VALID,0,VALID,24.2662,VALID,5,VALID,0.628906,
2011-02-15, 03:38:04,VALID,1003.2,VALID,0,INVALID,163.655,VALID,0,VALID,24.2857,VALID,5,VALID,0.577734,
2011-02-15, 03:39:04,VALID,1003.18,VALID,0,INVALID,163.693,VALID,0,VALID,24.2662,VALID,5,VALID,0.490234,
2011-02-15, 03:40:04,VALID,1003.16,VALID,0,INVALID,163.701,VALID,0,VALID,24.2662,VALID,15,VALID,0.446875,
2011-02-15, 03:41:04,VALID,1003.15,VALID,0,INVALID,163.693,VALID,0,VALID,24.2681,VALID,26,VALID,0.217187,
2011-02-15, 03:42:04,VALID,1003.12,VALID,0,INVALID,163.693,VALID,0,VALID,24.2486,VALID,27,VALID,0.425,